Regional Weather Roundup
Issued by NWS

Home | Current Version | Previous Version | Graphics & Text | Print | Product List | Glossary On
Versions: 1 2 3 4 5 6 7 8 9 10 11 12 13 14 15 16 17 18 19 20 21 22 23 24 25 26 27 28 29 30 31 32 33 34 35 36 37 38 39 40 41 42 43 44 45 46 47 48 49 50
284
ASUS45 KBOU 182210
RWRCO

WEATHER ROUNDUP FOR COLORADO
NATIONAL WEATHER SERVICE DENVER/BOULDER CO
300 PM MST SAT NOV 18 2017

NOTE: "FAIR" INDICATES FEW OR NO CLOUDS BELOW 12000 FEET WITH NO
SIGNIFICANT WEATHER AND/OR OBSTRUCTIONS TO VISIBILITY.

COZ001>005-013-030-031-182300-
...NORTHWEST COLORADO...

CITY           SKY/WX    TMP DP  RH WIND       PRES   REMARKS
CRAIG          FAIR      31  17  56 E6        30.38S WCI  25
HAYDEN         FAIR      33   9  36 CALM      30.38S
MEEKER         FAIR      31  20  63 MISG      30.36F
RABBIT EARS PA FAIR      14  12  92 W8        30.27R WCI   3
STEAMBOAT SPGS FAIR      28  10  45 W3        30.36S
WALDEN         FAIR      25   7  46 S14       30.29S WCI  13
$$

COZ006>008-011-182300-
...WEST CENTRAL VALLEYS...

CITY           SKY/WX    TMP DP  RH WIND       PRES   REMARKS
GRAND JUNCTION FAIR      43  15  32 E7        30.38F
MONTROSE       FAIR      39  15  37 SE6       30.39F
EAGLE          FAIR      35  13  40 CALM      30.37F
RIFLE          FAIR      38  11  32 CALM      30.38F
DELTA          FAIR      44  10  25 CALM      30.39S
NUCLA          FAIR      43   9  24 N5        30.38S
$$

COZ017>023-064>068-182300-
...SOUTHWEST COLORADO...

CITY           SKY/WX    TMP DP  RH WIND       PRES   REMARKS
DURANGO        FAIR      43  13  29 W7        30.30S
CORTEZ         FAIR      47   8  20 W7        30.32F
PAGOSA SPRINGS FAIR      42  10  26 SW3       30.30S
TELLURIDE      FAIR      35  15  43 W9        30.34R WCI  28
WOLF CREEK PAS FAIR      23  16  74 SW10      30.37S WCI  12
$$

COZ009-010-012-014-032>034-037-058>063-182300-
...CENTRAL COLORADO...

CITY           SKY/WX    TMP DP  RH WIND       PRES   REMARKS
ASPEN          FAIR      28  10  46 NW7       30.32F WCI  21
BUENA VISTA    FAIR      37   9  31 SW5       30.25S
COPPER MTN     FAIR      21   3  45 MISG      30.28S
BERTHOUD PASS  FAIR       5  -6  61 NW36      30.19S WCI -21
COTTONWOOD PAS FAIR      36  12  38 SE8       30.26S
GUNNISON       FAIR      30  12  47 N6        30.35F WCI  24
KREMMLING      FAIR      37  12  35 SW10      30.33F
LEADVILLE      FAIR      26   8  46 NW8G21    30.26F WCI  18
MONARCH PASS     N/A     18  14  86 W37       30.38S WCI  -4
SALIDA         FAIR      41  12  30 NW7       30.32S
SUNLIGHT       FAIR      19   9  63 MISG      30.36R
WILKERSON PASS FAIR      25  -2  30 W5        30.28R WCI  19
$$

COZ069>075-182300-
...SAN LUIS VALLEY/SANGRE DE CRISTO MOUNTAINS...

CITY           SKY/WX    TMP DP  RH WIND       PRES   REMARKS
ALAMOSA        FAIR      39   6  25 CALM      30.28F
DEL NORTE      FAIR      37  11  34 SE6       30.29S
LA VETA PASS   FAIR      30   5  34 S23G37      N/A  WCI  17
SAGUACHE       FAIR      39   3  22 NW10      30.29S
$$

COZ035-036-038>040-182300-
...NORTHERN COLORADO FRONT RANGE...

CITY           SKY/WX    TMP DP  RH WIND       PRES   REMARKS
DENVER INTL AP FAIR      44  16  32 SE8       30.17F
DMNS CITY PARK   N/A     49   5  16 W8        30.17S
AURORA         MOSUNNY   45  17  32 CALM      30.17F
FRONT RANGE AP SUNNY     45  18  33 S12G17    30.18F
ERIE MUNI ARPT FAIR      51   6  16 W6        30.21S
BOULDER MUN AP FAIR      48  10  21 NW3       30.16R
CENTENNIAL     FAIR      46  12  25 W13       30.17S
BROOMFIELD     SUNNY     48   7  18 W16       30.17F
FORT COLLINS   FAIR      48  12  23 S6        30.18S
LONGMONT       FAIR      52   9  17 E5        30.18S
$$

COZ041-046-047-076>085-087-088-182300-
...PIKES PEAK/PALMER DIVIDE AND SOUTHERN FOOTHILLS...

CITY           SKY/WX    TMP DP  RH WIND       PRES   REMARKS
COLO. SPRINGS  FAIR      43  11  27 S10       30.21S
A. F. ACADEMY  FAIR      42  10  27 S8        30.20R
SCHRIEVER AFB  FAIR      41   7  24 S6        30.21S
CHEYENNE MTN   FAIR      37  11  34 S12       30.14S
ELLICOTT       NOT AVBL
FALCON         FAIR      41   8  25 SW9       30.21S
FORT CARSON    FAIR      45  11  25 SE12      30.19S
LIMON          FAIR      41  10  28 VRB6      30.21S
MONUMENT HILL  FAIR      36  19  51 SW8       30.20S
CANON CITY     FAIR      52  18  25 E13       30.18S
WALSENBURG     FAIR      48  28  46 E5        30.20F
TRINIDAD       FAIR      42  24  49 SE7       30.24S
$$

COZ042>045-048>051-090-091-182300-
...NORTHEAST COLORADO...

CITY           SKY/WX    TMP DP  RH WIND       PRES   REMARKS
GREELEY ARPT   FAIR      48  12  23 SE9       30.19S
AKRON          FAIR      44  11  26 NW12      30.19S
BURLINGTON     FAIR      46  13  26 N16       30.22R
WRAY           NOT AVBL
YUMA           FAIR      43  14  31 NW20      30.19F
STERLING       FAIR      46  18  31 N21       30.17S
HOLYOKE        FAIR      46  14  27 NW17G25   30.19S
FORT MORGAN    FAIR      46   6  20 CALM      30.20S
$$

COZ086-089-092>099-182300-
...SOUTHEAST COLORADO...

CITY           SKY/WX    TMP DP  RH WIND       PRES   REMARKS
PUEBLO         FAIR      49  18  29 SE9       30.21F
LA JUNTA       FAIR      49  14  24 S7        30.23F
LAMAR          FAIR      50  11  20 NW6       30.23F
SPRINGFIELD      N/A     46  14  27 NW10      30.25S
$$




USA.gov is the U.S. government's official web portal to all federal, state and local government web resources and services.